Time,TemperatureF,DewpointF,PressureIn,WindDirection,WindDirectionDegrees,WindSpeedMPH,WindSpeedGustMPH,Humidity,HourlyPrecipIn,Conditions,Clouds,dailyrainin,SoftwareType,DateUTC
2018-01-20 00:08:00,34.0,19.0,-100.00,SSW,205,6.0,9.0,56,-99.99,,,-99.99,,2018-01-20 05:08:00,
2018-01-20 00:38:00,34.0,19.0,-100.00,SW,220,-999.9,-999.0,55,-99.99,,,-99.99,,2018-01-20 05:38:00,
2018-01-20 01:07:00,35.0,20.0,-100.00,SSW,210,6.0,10.0,55,-99.99,,,-99.99,,2018-01-20 06:07:00,
2018-01-20 01:37:00,35.0,21.0,-100.00,SW,220,6.0,11.0,57,-99.99,,,-99.99,,2018-01-20 06:37:00,
2018-01-20 02:07:00,36.0,22.0,-100.00,SW,220,9.0,13.0,57,-99.99,,,-99.99,,2018-01-20 07:07:00,
2018-01-20 02:36:00,36.0,23.0,-100.00,WSW,240,6.0,11.0,58,-99.99,,,-99.99,,2018-01-20 07:36:00,
2018-01-20 03:07:00,37.0,23.0,-100.00,SW,220,7.0,11.0,58,-99.99,,,-99.99,,2018-01-20 08:07:00,
2018-01-20 03:36:00,37.0,23.0,-100.00,SW,215,8.0,15.0,57,-99.99,,,-99.99,,2018-01-20 08:36:00,
2018-01-20 04:07:00,37.0,24.0,-100.00,SSW,210,7.0,12.0,59,-99.99,,,-99.99,,2018-01-20 09:07:00,
2018-01-20 04:37:00,37.0,25.0,-100.00,SW,225,10.0,12.0,60,-99.99,,,-99.99,,2018-01-20 09:37:00,
2018-01-20 05:36:00,37.0,24.0,-100.00,SW,225,8.0,14.0,60,-99.99,,,-99.99,,2018-01-20 10:36:00,
2018-01-20 06:08:00,37.0,24.0,-100.00,SW,220,7.0,13.0,60,-99.99,,,-99.99,,2018-01-20 11:08:00,
2018-01-20 06:36:00,36.0,24.0,-100.00,SW,220,8.0,12.0,62,-99.99,,,-99.99,,2018-01-20 11:36:00,
2018-01-20 07:07:00,35.0,24.0,-100.00,SW,220,7.0,12.0,62,-99.99,,,-99.99,,2018-01-20 12:07:00,
2018-01-20 07:37:00,35.0,24.0,-100.00,SW,220,6.0,9.0,62,-99.99,,,-99.99,,2018-01-20 12:37:00,
2018-01-20 08:36:00,36.0,24.0,-100.00,WSW,240,7.0,11.0,62,-99.99,,,-99.99,,2018-01-20 13:36:00,
2018-01-20 09:07:00,37.0,24.0,-100.00,SW,225,6.0,11.0,60,-99.99,,,-99.99,,2018-01-20 14:07:00,
2018-01-20 09:36:00,37.0,24.0,-100.00,SW,215,6.0,10.0,60,-99.99,,,-99.99,,2018-01-20 14:36:00,
2018-01-20 10:07:00,37.0,24.0,-100.00,WSW,240,7.0,12.0,60,-99.99,,,-99.99,,2018-01-20 15:07:00,
2018-01-20 10:36:00,39.0,25.0,-100.00,WSW,245,7.0,10.0,57,-99.99,,,-99.99,,2018-01-20 15:36:00,
2018-01-20 11:07:00,39.0,25.0,-100.00,SW,225,6.0,10.0,57,-99.99,,,-99.99,,2018-01-20 16:07:00,
2018-01-20 11:36:00,39.0,25.0,-100.00,SW,230,8.0,11.0,56,-99.99,,,-99.99,,2018-01-20 16:36:00,
2018-01-20 12:08:00,40.0,26.0,-100.00,SW,230,7.0,10.0,56,-99.99,,,-99.99,,2018-01-20 17:08:00,
2018-01-20 12:37:00,41.0,26.0,-100.00,SW,235,7.0,-999.0,55,-99.99,,,-99.99,,2018-01-20 17:37:00,
2018-01-20 13:08:00,42.0,26.0,-100.00,WSW,240,7.0,9.0,54,-99.99,,,-99.99,,2018-01-20 18:08:00,
2018-01-20 13:36:00,42.0,26.0,-100.00,SW,225,7.0,12.0,54,-99.99,,,-99.99,,2018-01-20 18:36:00,
2018-01-20 14:07:00,42.0,26.0,-100.00,SW,225,7.0,14.0,53,-99.99,,,-99.99,,2018-01-20 19:07:00,
2018-01-20 14:36:00,43.0,27.0,-100.00,WSW,240,7.0,12.0,53,-99.99,,,-99.99,,2018-01-20 19:36:00,
2018-01-20 15:07:00,43.0,26.0,-100.00,WSW,240,9.0,12.0,52,-99.99,,,-99.99,,2018-01-20 20:07:00,
2018-01-20 15:37:00,44.0,27.0,-100.00,WSW,240,6.0,10.0,51,-99.99,,,-99.99,,2018-01-20 20:37:00,
2018-01-20 16:07:00,44.0,28.0,-100.00,SW,225,6.0,9.0,52,-99.99,,,-99.99,,2018-01-20 21:07:00,
2018-01-20 16:37:00,45.0,28.0,-100.00,SW,220,5.0,8.0,52,-99.99,,,-99.99,,2018-01-20 21:37:00,
2018-01-20 17:08:00,44.0,28.0,-100.00,SW,230,4.0,7.0,53,-99.99,,,-99.99,,2018-01-20 22:08:00,
2018-01-20 17:37:00,43.0,29.0,-100.00,SW,235,2.0,5.0,56,-99.99,,,-99.99,,2018-01-20 22:37:00,
2018-01-20 18:08:00,42.0,29.0,-100.00,SW,225,1.0,2.0,60,-99.99,,,-99.99,,2018-01-20 23:08:00,
2018-01-20 18:37:00,41.0,29.0,-100.00,ESE,120,0.0,1.0,63,-99.99,,,-99.99,,2018-01-20 23:37:00,
2018-01-20 19:08:00,38.0,29.0,-100.00,WNW,285,1.0,2.0,70,-99.99,,,-99.99,,2018-01-21 00:08:00,
2018-01-20 19:36:00,43.0,31.0,-100.00,SW,220,4.0,6.0,63,-99.99,,,-99.99,,2018-01-21 00:36:00,
2018-01-20 20:07:00,43.0,31.0,-100.00,SSW,210,3.0,6.0,63,-99.99,,,-99.99,,2018-01-21 01:07:00,
2018-01-20 20:37:00,42.0,31.0,-100.00,SSW,205,3.0,5.0,66,-99.99,,,-99.99,,2018-01-21 01:37:00,
2018-01-20 21:08:00,42.0,31.0,-100.00,SSW,210,4.0,5.0,63,-99.99,,,-99.99,,2018-01-21 02:08:00,
2018-01-20 21:36:00,42.0,31.0,-100.00,SSW,200,2.0,4.0,66,-99.99,,,-99.99,,2018-01-21 02:36:00,
2018-01-20 22:07:00,41.0,31.0,-100.00,SSW,210,4.0,6.0,67,-99.99,,,-99.99,,2018-01-21 03:07:00,